Time,TemperatureF,DewpointF,PressureIn,WindDirection,WindDirectionDegrees,WindSpeedMPH,WindSpeedGustMPH,Humidity,HourlyPrecipIn,Conditions,Clouds,dailyrainin,SolarRadiationWatts/m^2,SoftwareType,DateUTC
2013-07-16 00:03:00,66.0,51.0,-100.00,NNW,347,7.0,13.0,59,0.00,,,0.31,237.000000,,2013-07-16 00:03:00,
2013-07-16 00:14:00,66.0,51.0,-100.00,NNW,347,7.0,13.0,59,0.00,,,0.31,237.000000,,2013-07-16 00:14:00,
2013-07-16 00:25:00,66.0,51.0,-100.00,NNW,347,7.0,13.0,59,0.00,,,0.31,237.000000,,2013-07-16 00:25:00,
2013-07-16 01:07:00,60.0,52.0,-100.00,NW,319,12.0,18.0,74,-99.99,,,0.31,102.000000,,2013-07-16 01:07:00,
2013-07-16 01:25:00,60.0,52.0,-100.00,NW,319,12.0,18.0,74,-99.99,,,0.31,102.000000,,2013-07-16 01:25:00,
2013-07-16 01:35:00,60.0,52.0,-100.00,NW,319,12.0,18.0,74,-99.99,,,0.31,102.000000,,2013-07-16 01:35:00,
2013-07-16 02:11:00,58.0,51.0,-100.00,NNW,329,9.0,21.0,77,0.00,,,0.25,34.000000,,2013-07-16 02:11:00,
2013-07-16 02:35:00,58.0,51.0,-100.00,NNW,329,9.0,21.0,77,0.00,,,0.25,34.000000,,2013-07-16 02:35:00,
2013-07-16 03:06:00,56.0,50.0,-100.00,NW,316,11.0,16.0,79,0.00,,,0.15,6.000000,,2013-07-16 03:06:00,
2013-07-16 03:15:00,56.0,50.0,-100.00,NW,316,11.0,16.0,79,0.00,,,0.15,6.000000,,2013-07-16 03:15:00,
2013-07-16 03:27:00,56.0,50.0,-100.00,NW,316,11.0,16.0,79,0.00,,,0.15,6.000000,,2013-07-16 03:27:00,
2013-07-16 03:36:00,56.0,50.0,-100.00,NW,316,11.0,16.0,79,0.00,,,0.15,6.000000,,2013-07-16 03:36:00,
2013-07-16 18:01:00,67.0,46.0,-100.00,SE,140,7.0,13.0,47,-99.99,,,0.04,855.000000,,2013-07-16 18:01:00,
2013-07-16 18:11:00,67.0,46.0,-100.00,SE,140,7.0,13.0,47,-99.99,,,0.04,855.000000,,2013-07-16 18:11:00,
2013-07-16 18:22:00,67.0,46.0,-100.00,SE,140,7.0,13.0,47,-99.99,,,0.04,855.000000,,2013-07-16 18:22:00,
2013-07-16 18:32:00,67.0,46.0,-100.00,SE,140,7.0,13.0,47,-99.99,,,0.04,855.000000,,2013-07-16 18:32:00,
2013-07-16 19:01:00,70.0,45.0,-100.00,South,189,6.0,16.0,41,0.00,,,0.01,976.000000,,2013-07-16 19:01:00,
2013-07-16 19:11:00,70.0,45.0,-100.00,South,189,6.0,16.0,41,0.00,,,0.01,976.000000,,2013-07-16 19:11:00,
2013-07-16 19:22:00,70.0,45.0,-100.00,South,189,6.0,16.0,41,0.00,,,0.01,976.000000,,2013-07-16 19:22:00,
2013-07-16 19:32:00,70.0,45.0,-100.00,South,189,6.0,16.0,41,0.00,,,0.01,976.000000,,2013-07-16 19:32:00,
2013-07-16 20:03:00,71.0,45.0,-100.00,East,99,5.0,16.0,39,0.00,,,0.00,1021.000000,,2013-07-16 20:03:00,
2013-07-16 20:11:00,71.0,45.0,-100.00,East,99,5.0,16.0,39,0.00,,,0.00,1021.000000,,2013-07-16 20:11:00,
2013-07-16 20:22:00,71.0,45.0,-100.00,East,99,5.0,16.0,39,0.00,,,0.00,1021.000000,,2013-07-16 20:22:00,
2013-07-16 20:32:00,71.0,45.0,-100.00,East,99,5.0,16.0,39,0.00,,,0.00,1021.000000,,2013-07-16 20:32:00,
2013-07-16 21:11:00,74.0,43.0,-100.00,South,186,7.0,13.0,33,0.00,,,0.00,1066.000000,,2013-07-16 21:11:00,
2013-07-16 21:22:00,74.0,43.0,-100.00,South,186,7.0,13.0,33,0.00,,,0.00,1066.000000,,2013-07-16 21:22:00,
2013-07-16 21:32:00,74.0,43.0,-100.00,South,186,7.0,13.0,33,0.00,,,0.00,1066.000000,,2013-07-16 21:32:00,
2013-07-16 22:01:00,73.0,42.0,-100.00,NNW,345,6.0,14.0,33,0.00,,,0.00,878.000000,,2013-07-16 22:01:00,
2013-07-16 22:11:00,73.0,42.0,-100.00,NNW,345,6.0,14.0,33,0.00,,,0.00,878.000000,,2013-07-16 22:11:00,
2013-07-16 22:22:00,73.0,42.0,-100.00,NNW,345,6.0,14.0,33,0.00,,,0.00,878.000000,,2013-07-16 22:22:00,
2013-07-16 22:33:00,73.0,42.0,-100.00,NNW,345,6.0,14.0,33,0.00,,,0.00,878.000000,,2013-07-16 22:33:00,
2013-07-16 23:01:00,74.0,37.0,-100.00,North,355,5.0,15.0,26,0.00,,,0.00,645.000000,,2013-07-16 23:01:00,
2013-07-16 23:11:00,74.0,37.0,-100.00,North,355,5.0,15.0,26,0.00,,,0.00,645.000000,,2013-07-16 23:11:00,
2013-07-16 23:22:00,74.0,37.0,-100.00,North,355,5.0,15.0,26,0.00,,,0.00,645.000000,,2013-07-16 23:22:00,
2013-07-16 23:32:00,74.0,37.0,-100.00,North,355,5.0,15.0,26,0.00,,,0.00,645.000000,,2013-07-16 23:32:00,